Location: Hastringsfeld
(50.9620°N, 10.4787°E)
Time: 05:12:48
(UTC+00:00)

Cosmos 1680 Rocket - Pass Details

Date: 26 September 2023
Orbit: 758 x 779 km, 74.1° (Epoch: 29 November)

Event Time Altitude Azimuth Distance (km) Brightness Sun altitude
Rises 02:17:01 0° 335° (NNW) 3,275 6.9 -26.5°
Reaches altitude 10° 02:19:25 10° 335° (NNW) 2,344 6.1 -26.2°
Maximum altitude 02:24:45 85° 248° (WSW) 791 3.4 -25.5°
Enters shadow 02:26:42 41° 162° (SSE) 1,126 4.2 -25.2°
Exits shadow 02:32:11 - 160° (SSE) 3,156 6.6 -24.5°
Sets 02:32:26 0° 160° (SSE) 3,250 6.6 -24.4°
